Buscar
  • Menú Principal
  • Est. Meteorològica
  • Mareògraf
  • Previsió
Les dades presentades són DEUMINUTALS

Data últim calibratge: ** PENDENT **

Estat: Darrera lectura: 13/06 04:50 Hora local
Velocitat del vent: 6,1 Km/h Ratxa màxima: 10,3 km/h
V.vent (nusos): 3,3 Nudos Dir. procedència: O (272º)
Temp. De l'aire: 16 ºC Hum. rel.: 78,4 %
         
Rosa de vent (últimes 24 h i 7 dies previs a 13/06 04:50 Hora local )
Rosa 24 Horas Rosa 7 Días
Últimes 24 hores Últims 7 dies
Descripció de l'estació:
         
Posició de l'estació
Imagen estacion
TOTES LES DADES ESTAN EN HORA LOCAL
Data
Vel. vent. (Km/h)
Dir. vent (º)
Max. vent. (Km/h):
Temp. aire (º C)
Hum. relativa (%)
2024/06/13 04:506,127210,31678,4
2024/06/13 04:406,027110,61678,0
2024/06/13 04:305,12679,71677,4
2024/06/13 04:204,92659,01677,0
2024/06/13 04:103,02697,21676,9
2024/06/13 04:003,02687,11676,5
2024/06/13 03:501,52255,71676,4
2024/06/13 03:402,62567,61676,3
2024/06/13 03:302,02527,41676,1
2024/06/13 03:202,32408,81676,0
2024/06/13 03:105,62659,91675,8
2024/06/13 03:003,728411,11775,5
2024/06/13 02:504,431912,51775,3
2024/06/13 02:404,528114,21775,0
2024/06/13 02:303,828914,41774,8
2024/06/13 02:203,028711,51774,8
2024/06/13 02:103,71312,61775,1
2024/06/13 02:006,42514,51775,5
2024/06/13 01:504,3015,81776,0
2024/06/13 01:404,9314,01776,2
2024/06/13 01:305,51915,61776,7
2024/06/13 01:2010,21920,31776,9
2024/06/13 01:1014,12623,51777,8
2024/06/13 01:0015,86529,11779,3
Página 1 de 25 (594 Datos)< Prev1234567232425Next >
TOTES LES DADES ESTAN EN HORA LOCAL
Data
Vel. vent. (Km/h)
Dir. vent (º)
Max. vent. (Km/h):
Temp. aire (º C)
Hum. relativa (%)
2024/06/13 04:004,72729,01677,4
2024/06/13 03:003,02258,41676,0
2024/06/13 02:004,331913,31775,1
2024/06/13 01:009,1019,71777,1
2024/06/13 00:0017,55533,51877,0
2024/06/12 23:0019,85334,81969,4
2024/06/12 22:0012,212818,12069,5
2024/06/12 21:007,813414,92068,8
2024/06/12 20:0014,218926,92067,2
2024/06/12 19:0017,219232,72069,6
2024/06/12 18:0023,819239,92065,9
2024/06/12 17:0021,318936,32064,5
2024/06/12 16:0021,418940,82158,5
2024/06/12 15:0019,017734,52251,3
2024/06/12 14:0017,122234,12250,0
2024/06/12 13:0012,611718,32067,1
2024/06/12 12:0013,311320,82065,9
2024/06/12 11:0010,413616,72064,2
2024/06/12 10:002,81948,92064,9
2024/06/12 09:004,431912,51967,7
2024/06/12 08:008,726417,01764,4
2024/06/12 07:007,724514,21665,7
2024/06/12 06:007,326514,21666,6
2024/06/12 05:009,124419,81770,9
Página 1 de 5 (99 Datos)< Prev12345Next >
TOTES LES DADES ESTAN EN HORA LOCAL
Data
Vel. vent. (Km/h)
Dir. vent (º)
Max. vent. (Km/h):
Temp. aire (º C)
Hum. relativa (%)
2024/06/13 00:004,027210,21676,2
2024/06/12 00:0011,9022,31968,1
2024/06/11 00:006,64215,71876,7
2024/06/10 00:009,81119,92160,8
2024/06/09 00:0012,226624,52363,0
TOTES LES DADES ESTAN EN HORA LOCAL
Les dades presentades són DEUMINUTALS
48 Hores
24 Hores
12 Hores
6 Hores
3 Hores

The Velocitat del vent (km/h) chart showing Velocitat del vent (km/h) series.

The Direcció vent (º) chart showing Direcció vent (º) series.


The Temperatura (º) chart showing Temperatura (º) series.